KE0RUZ Weather Reports


Display with metric or nautical units.
time (UTC)temp
F
wind
direction
speed
MPH
gust
MPH
rain 1hr
in
rain 24hr
in
rain mn
in
humidity
%
barometer
mb
20260906084559 77 92 0.0 3.0 0.00 0.00 0.00 74 1015.0
20260906083044 77 81 1.0 4.0 0.00 0.00 0.00 75 1014.8
20260906081636 76 121 0.0 1.0 0.00 0.00 0.00 76 1014.9
20260906080253 76 120 0.0 2.0 0.00 0.00 0.00 76 1014.8
20260906074556 76 129 1.0 3.0 0.00 0.00 0.00 78 1014.8
20260906073057 75 148 0.0 0.0 0.00 0.00 0.00 79 1015.2
20260906071555 75 148 0.0 1.0 0.00 0.00 0.00 78 1015.1
20260906070054 75 97 0.0 2.0 0.00 0.00 0.00 79 1015.1
20260906064558 75 0 0.0 2.0 0.00 0.00 0.00 80 1015.1
20260906063100 75 0 0.0 0.0 0.00 0.00 0.00 79 1015.1
20260906061555 76 0 0.0 0.0 0.00 0.00 0.00 78 1015.0
20260906060054 77 0 0.0 0.0 0.00 0.00 0.00 77 1015.1
20260906054548 77 0 0.0 0.0 0.00 0.00 0.00 76 1015.1
20260906053100 78 0 0.0 1.0 0.00 0.00 0.00 77 1015.2
20260906051600 78 0 0.0 1.0 0.00 0.00 0.00 77 1015.2
20260906050056 78 91 0.0 1.0 0.00 0.00 0.00 77 1015.2
20260906044558 78 0 0.0 0.0 0.00 0.00 0.00 75 1015.1
20260906043101 78 0 0.0 2.0 0.00 0.00 0.00 76 1015.3
20260906041559 79 144 0.0 0.0 0.00 0.00 0.00 75 1015.3
20260906040052 80 0 0.0 0.0 0.00 0.00 0.00 73 1015.3
20260906034603 79 0 0.0 1.0 0.00 0.00 0.00 73 1015.2
20260906033110 79 0 1.0 2.0 0.00 0.00 0.00 74 1015.0
20260906031603 80 0 0.0 0.0 0.00 0.00 0.00 73 1014.9
20260906030050 80 0 0.0 0.0 0.00 0.00 0.00 72 1014.8
20260906024557 80 0 0.0 0.0 0.00 0.00 0.00 71 1014.5
20260906023056 81 0 0.0 0.0 0.00 0.00 0.00 70 1014.4
20260906021602 82 0 0.0 0.0 0.00 0.00 0.00 69 1014.2
20260906020106 82 0 0.0 0.0 0.00 0.00 0.00 68 1014.1
20260906014554 83 0 0.0 0.0 0.00 0.00 0.00 67 1013.9
20260906013058 85 0 0.0 0.0 0.00 0.00 0.00 65 1013.7
20260906011559 86 0 0.0 0.0 0.00 0.00 0.00 62 1013.5
20260906010100 88 0 0.0 0.0 0.00 0.00 0.00 59 1013.6
20260906004602 90 0 0.0 0.0 0.00 0.00 0.00 55 1013.4
20260906003049 92 0 0.0 1.0 0.00 0.00 0.00 53 1013.4
20260906001551 94 0 0.0 0.0 0.00 0.00 0.00 50 1013.5
20260906000059 96 0 0.0 1.0 0.00 0.00 0.00 49 1013.5
20260905234552 97 0 0.0 1.0 0.00 0.00 0.00 45 1013.4
20260905233100 98 0 0.0 1.0 0.00 0.00 0.00 41 1013.4
20260905231556 98 0 0.0 4.0 0.00 0.00 0.00 42 1013.4
20260905230058 99 37 0.0 2.0 0.00 0.00 0.00 41 1013.3
20260905224552 100 44 1.0 5.0 0.00 0.00 0.00 40 1013.3
20260905223056 100 94 2.0 6.0 0.00 0.00 0.00 39 1013.5
20260905221554 101 29 1.0 6.0 0.00 0.00 0.00 39 1013.5
20260905220050 102 93 3.0 5.0 0.00 0.00 0.00 39 1013.5
20260905214600 101 0 1.0 6.0 0.00 0.00 0.00 40 1013.7
20260905213057 101 341 3.0 6.0 0.00 0.00 0.00 39 1013.8
20260905211621 101 134 2.0 4.0 0.00 0.00 0.00 38 1014.1
20260905210123 102 101 2.0 7.0 0.00 0.00 0.00 39 1014.3
20260905204602 101 33 2.0 10.0 0.00 0.00 0.00 41 1014.5
20260905203055 102 91 2.0 4.0 0.00 0.00 0.00 40 1014.8
20260905201555 100 58 2.0 9.0 0.00 0.00 0.00 41 1015.1
20260905194608 98 354 2.0 6.0 0.00 0.00 0.00 45 1015.5
20260905193053 98 49 2.0 5.0 0.00 0.00 0.00 46 1015.7
20260905191557 97 319 1.0 4.0 0.00 0.00 0.00 46 1015.9
20260905190050 99 38 1.0 7.0 0.00 0.00 0.00 45 1016.0
20260905184617 97 328 2.0 8.0 0.00 0.00 0.00 46 1016.3
20260905183058 99 313 0.0 6.0 0.00 0.00 0.00 44 1016.5
20260905181557 99 311 1.0 7.0 0.00 0.00 0.00 44 1016.6
20260905180052 98 116 4.0 7.0 0.00 0.00 0.00 45 1016.8
20260905174546 97 207 3.0 6.0 0.00 0.00 0.00 48 1017.0
20260905173101 97 336 2.0 8.0 0.00 0.00 0.00 48 1017.3
20260905171558 96 296 2.0 6.0 0.00 0.00 0.00 48 1017.4
20260905170050 96 326 1.0 6.0 0.00 0.00 0.00 49 1017.5
20260905164559 96 336 2.0 7.0 0.00 0.00 0.00 49 1017.7
20260905163102 96 291 1.0 6.0 0.00 0.00 0.00 50 1017.7
20260905161552 96 240 1.0 9.0 0.00 0.00 0.00 51 1017.7
20260905160051 94 319 2.0 8.0 0.00 0.00 0.00 52 1017.8
20260905154615 93 354 2.0 8.0 0.00 0.00 0.00 53 1017.6
20260905153102 92 346 1.0 6.0 0.00 0.00 0.00 55 1017.7
20260905151551 92 258 2.0 6.0 0.00 0.00 0.00 57 1017.5
20260905150047 91 224 1.0 5.0 0.00 0.00 0.00 58 1017.4
20260905144555 90 319 1.0 4.0 0.00 0.00 0.00 59 1017.3
20260905143055 89 259 1.0 6.0 0.00 0.00 0.00 63 1017.3
20260905141551 87 233 2.0 7.0 0.00 0.00 0.00 64 1017.3
20260905140048 85 181 2.0 6.0 0.00 0.00 0.00 66 1017.4
20260905134546 84 218 2.0 4.0 0.00 0.00 0.00 69 1017.4
20260905133051 82 245 1.0 3.0 0.00 0.00 0.00 71 1017.3
20260905131552 80 146 0.0 2.0 0.00 0.00 0.00 76 1017.1
20260905130050 77 135 1.0 3.0 0.00 0.00 0.00 80 1017.0
20260905124557 75 141 0.0 4.0 0.00 0.00 0.00 82 1016.8
20260905123129 74 123 0.0 2.0 0.00 0.00 0.00 84 1016.9
20260905121547 73 0 0.0 0.0 0.00 0.00 0.00 86 1016.6
20260905120054 72 0 0.0 0.0 0.00 0.00 0.00 86 1016.4
20260905114554 72 0 0.0 0.0 0.00 0.00 0.00 86 1016.3
20260905113052 72 0 0.0 0.0 0.00 0.00 0.00 86 1016.3
20260905111635 72 0 0.0 0.0 0.00 0.00 0.00 85 1016.3
20260905110053 72 0 0.0 0.0 0.00 0.00 0.00 85 1016.2
20260905104600 73 0 0.0 0.0 0.00 0.00 0.00 85 1016.1
20260905103051 73 0 0.0 0.0 0.00 0.00 0.00 84 1016.2
20260905101554 73 0 0.0 0.0 0.00 0.00 0.00 84 1016.0
20260905094546 74 0 0.0 0.0 0.00 0.00 0.00 83 1016.2
20260905093050 74 0 0.0 0.0 0.00 0.00 0.00 81 1016.0
20260905091546 75 0 0.0 0.0 0.00 0.00 0.00 80 1016.0
20260905090055 75 0 0.0 1.0 0.00 0.00 0.00 80 1016.0